CDT,Max TemperatureF,Mean TemperatureF,Min TemperatureF,Max Dew PointF,MeanDew PointF,Min DewpointF,Max Humidity, Mean Humidity, Min Humidity, Max Sea Level PressureIn, Mean Sea Level PressureIn, Min Sea Level PressureIn, Max VisibilityMiles, Mean VisibilityMiles, Min VisibilityMiles, Max Wind SpeedMPH, Mean Wind SpeedMPH, Max Gust SpeedMPH,PrecipitationIn, CloudCover, Events, WindDirDegrees
2013-7-1,68,55,41,54,50,40,96,76,57,30.27,30.22,30.13,10,10,9,16,5,,0.00,0,,29
2013-7-2,73,56,39,53,42,38,100,69,29,30.24,30.19,30.13,10,10,10,9,3,,0.00,0,,31
2013-7-3,79,58,37,57,48,37,97,71,33,30.13,30.06,29.99,10,10,10,10,2,,0.00,0,,327
2013-7-4,84,65,46,60,56,45,97,66,41,29.99,29.94,29.88,10,10,6,14,4,22,0.00,1,,209
2013-7-5,87,78,68,61,59,57,70,53,36,29.92,29.87,29.82,10,10,10,18,12,29,0.00,1,,205
2013-7-6,88,75,64,73,65,59,94,72,49,29.91,29.87,29.83,10,8,3,15,10,22,0.03,3,Rain-Thunderstorm,220
2013-7-7,82,67,53,70,61,53,100,91,69,30.01,29.91,29.84,10,5,1,15,7,20,1.21,7,Rain-Thunderstorm,54
2013-7-8,71,62,53,63,56,52,100,92,73,30.05,30.00,29.92,10,5,0,17,6,20,0.79,5,Fog-Rain-Thunderstorm,23
2013-7-9,66,58,51,63,57,52,100,95,88,30.02,29.89,29.79,10,4,0,7,2,,0.23,7,Fog-Rain,20
2013-7-10,75,65,55,60,55,52,93,70,45,30.03,29.96,29.88,10,10,8,13,7,22,0.00,1,,289
2013-7-11,82,66,51,63,55,50,100,72,39,30.13,30.07,30.00,10,8,2,10,4,,0.00,0,,224
2013-7-12,86,70,55,63,59,54,96,62,41,30.04,29.98,29.92,10,10,9,15,6,25,0.00,1,,198
2013-7-13,82,74,64,68,63,57,93,72,57,30.12,30.03,29.96,10,10,6,13,8,18,0.05,4,Rain-Thunderstorm,211
2013-7-14,84,74,63,69,65,61,97,77,56,30.23,30.16,30.12,10,10,7,13,5,17,0.06,4,Rain,201
2013-7-15,82,70,59,71,62,57,100,90,69,30.27,30.24,30.21,10,4,0,9,1,,0.00,1,Fog,1
2013-7-16,91,75,60,75,67,59,100,81,53,30.21,30.18,30.13,10,6,1,13,3,22,0.19,2,Rain-Thunderstorm,229
2013-7-17,91,78,66,71,68,65,96,73,48,30.22,30.16,30.09,10,10,5,14,7,22,0.00,1,,246
2013-7-18,91,78,64,75,68,64,97,75,48,30.09,29.91,29.65,10,7,2,18,5,31,0.09,3,Rain-Thunderstorm,221
2013-7-19,82,73,61,71,65,53,100,75,43,29.83,29.71,29.62,10,8,1,18,11,30,0.70,4,Rain-Thunderstorm,269
2013-7-20,66,56,46,57,50,45,93,69,50,30.06,29.99,29.83,10,10,10,13,6,,0.00,1,,47
2013-7-21,71,56,42,58,50,41,97,79,54,30.06,29.99,29.88,10,10,10,14,4,,0.00,1,,51
2013-7-22,84,66,50,71,58,49,96,74,48,29.86,29.72,29.62,10,10,10,17,6,28,0.02,1,,255
2013-7-23,72,62,51,58,50,48,93,70,45,30.05,29.97,29.80,10,10,10,12,6,17,0.00,1,,353
2013-7-24,73,62,50,56,53,48,93,70,48,30.09,30.03,29.97,10,10,10,13,6,18,0.00,3,,231
2013-7-25,82,70,59,63,59,54,100,84,47,29.96,29.91,29.87,10,6,0,15,6,23,1.00,6,Fog-Rain-Thunderstorm,303
2013-7-26,61,54,46,58,53,44,100,94,86,30.09,29.97,29.88,10,5,0,18,5,25,0.25,8,Fog-Rain,14
2013-7-27,57,51,45,49,47,42,97,84,67,30.05,29.93,29.87,10,9,2,13,7,21,0.03,8,Rain,313
2013-7-28,64,56,50,56,51,48,100,89,72,30.07,29.95,29.90,10,8,2,9,4,16,0.10,8,Rain,313
2013-7-29,75,60,48,57,52,47,100,76,48,30.13,30.10,30.05,10,10,2,7,4,,0.00,1,,261
2013-7-30,73,62,53,61,58,52,97,84,66,30.15,30.10,30.05,10,10,8,10,3,,0.00,6,,217
2013-7-31,75,65,55,63,58,50,100,78,42,30.04,29.99,29.93,10,9,5,15,7,24,0.15,3,Rain,252